ZHUHAI-1 01 (CAS-4A) (42761 NORAD) Tracking and Keplerian Element Data

This shows tracking and keplerian element data for the satellite.

Feedback or suggestion? Click here.




ElementValue
Catalog42761
NameZHUHAI-1 01 (CAS-4A)
Epoch Orbit18477
Epoch Day293.87026583
Epoch Year2020
RAAN62.6415
Inclination43.0181
Eccentricity0.0009729
Argument of Perigee91.0988
Mean Anonmoly50.668
Mean Motion15.09989767
Decay Rate1.01E-06
L11 42761U 17034D 20293.87026583 .00000101 00000-0 19544-4 0 9999
L22 42761 43.0181 62.6415 0009729 91.0988 50.6680 15.09989767184778

Live tracking and technical data element details for ZHUHAI-1 01 (CAS-4A) (NORAD 42761). ZHUHAI-1 01 (CAS-4A) can be tracked NOW for your location showing map with azimuth and elevation plus other details from your city location.

Track the satellite on the map from your city or location and see movement details for azimuth, elevation, latitude, longitude, range, height, and movement on the map or in text.







IsCatalogInMostPopularTable: catalog: 42761, numindb: 468
Update: records affected: 1



GetName: 42761 ZHUHAI-1 01 (CAS-4A)

Hit Count: updated at: Tue, 20 Oct 2020 17:50:43 GMT